Location: Cheust
(43.0517°N, 0.0151°E)
Time: 15:09:40
(UTC+00:00)

Daily predictions for brighter satellites

Satellite Brightness Start Highest point End
(mag) Time Altitude Azimuth Time Altitude Azimuth Time Altitude Azimuth
USA 81 4.1 20:08:33 10° N 20:13:49 73° E 20:19:05 10° S
Cosmos 1758 3.6 20:11:45 10° NNW 20:15:43 71° W 20:19:38 10° S
ATLAS CENTAUR R/B 1.9 20:15:45 10° NNW 20:20:04 56° NE 20:24:37 10° SE
Cosmos 1850 Rocket 4.2 20:15:13 10° NNW 20:20:31 74° WSW 20:25:43 10° SSE
Cosmos 1331 Rocket 4.0 20:16:28 10° SSW 20:21:42 74° ESE 20:26:59 10° NNE
Cosmos 1459 Rocket 4.2 20:16:36 10° N 20:22:29 51° ENE 20:28:24 10° SSE
Cosmos 1626 2.7 20:21:23 10° SSE 20:24:48 37° E 20:28:14 10° NNE
Cosmos 1844 Rocket 2.8 20:20:44 10° NNW 20:26:26 90° ENE 20:32:07 10° SSE
Cosmos 1461 3.6 20:22:51 10° NW 20:26:52 48° WSW 20:30:41 10° SSE
IGS 5A 3.5 20:24:07 10° SSE 20:28:14 66° ENE 20:32:23 10° N
Meteor 1-16 Rocket 4.1 20:24:26 10° N 20:29:51 74° E 20:35:09 10° SSE
MetOp-B 4.5 20:25:04 10° SE 20:30:14 53° ENE 20:35:26 10° N
FALCON 9 DEB 4.2 20:27:22 10° WSW 20:30:22 45° NNW 20:33:24 10° NE
Cosmos 2278 Rocket 3.9 20:28:36 10° N 20:32:51 21° NE 20:37:05 10° E
X-37B 1.8 20:30:29 10° SSW 20:33:02 23° SSE 20:35:37 10° E
Cosmos 2322 3.7 20:27:41 10° S 20:33:13 61° ESE 20:38:47 10° NNE
Cosmos 1802 Rocket 4.3 20:27:45 10° N 20:33:54 52° ENE 20:40:06 10° SSE
ERS-2 3.8 20:32:12 10° N 20:35:36 38° WNW 20:39:00 10° SW
Cosmos 1953 2.3 20:33:10 10° N 20:37:15 84° E 20:41:17 10° S
Cosmos 1000 Rocket 4.5 20:31:34 10° S 20:37:38 69° E 20:43:44 10° NNE
Resurs 01 Rocket 1.6 20:33:19 10° SSE 20:37:42 88° E 20:42:09 10° NNW
COSMOS 2428 3.0 20:33:04 10° S 20:38:29 46° ESE 20:43:57 10° NE
Cosmos 1302 Rocket 4.1 20:40:20 10° S 20:45:30 60° ESE 20:50:40 10° NNE
BREEZE-M DEB (TANK) 2.9 20:46:00 10° WSW 20:48:19 60° NNW 20:52:36 10° ENE
Cosmos 1544 Rocket 3.6 20:44:48 10° N 20:49:15 69° E 20:53:26 11° SSE
ATLAS CENTAUR R/B 4.3 20:49:29 10° ESE 20:50:50 11° E 20:52:53 10° ENE
Cosmos 1908 3.4 20:47:47 10° NNW 20:51:39 71° W 20:55:27 10° S
CZ-2C R/B 3.8 20:47:37 10° NNE 20:52:23 67° ESE 20:57:06 10° S
SPOT 1/Viking Rocket 3.6 20:47:36 11° SSE 20:52:32 69° ENE 20:57:40 10° N
Cosmos 1455 Rocket 3.5 20:48:46 10° NNW 20:53:11 64° W 20:57:35 10° S
BREEZE-M DEB (TANK) 1.3 20:53:38 10° WSW 20:55:55 86° NW 20:59:36 10° ENE
Ariane Rocket 4.2 20:52:03 10° SSW 20:56:48 39° W 21:01:35 10° NNW
Cosmos 2123 Rocket 4.0 21:01:07 10° S 21:07:22 74° E 21:13:42 10° NNE
Cosmos 1025 Rocket 3.4 21:03:10 10° SSW 21:07:30 66° W 21:11:51 10° N
Cosmos 1980 4.5 21:05:21 14° SSE 21:09:23 32° ESE 21:14:21 10° NE
Cosmos 2233 Rocket 4.5 21:03:44 10° N 21:09:38 45° ENE 21:14:01 18° SE
Cosmos 968 Rocket 3.7 21:05:04 10° NNW 21:10:09 60° ENE 21:13:47 19° SE
Cosmos 2228 4.3 21:08:30 10° NNE 21:12:19 28° ENE 21:14:34 18° ESE
ARIANE 5 R/B 2.8 21:10:25 18° SSE 21:13:36 64° ENE 21:18:05 10° N
Terra 2.7 21:12:09 18° SE 21:15:07 35° ENE 21:19:27 10° N
Cosmos 2219 Rocket 2.4 21:09:58 10° SSW 21:15:38 75° WNW 21:21:21 10° NNE
Cosmos 389 Rocket 3.8 21:14:18 10° NNE 21:17:13 25° ENE 21:18:28 20° ESE
Cosmos 2061 Rocket 4.1 21:14:42 10° N 21:21:10 89° W 21:26:37 15° S
Cosmos 1536 Rocket 3.6 21:18:03 10° S 21:22:27 87° W 21:26:55 10° N
SPOT 3 Rocket 4.5 21:17:38 10° S 21:22:32 44° W 21:27:31 10° NNW
Uosat 12 SS-18 rocket 4.5 21:19:09 10° SW 21:23:27 69° NW 21:28:27 10° NNE
ATLAS 3B R/B 3.3 21:17:39 10° SW 21:24:05 57° NW 21:30:45 10° NNE
Cosmos 1346 Rocket 3.3 21:22:34 24° SSE 21:24:28 41° E 21:28:16 10° NNE
Cosmos 1992 Rocket 4.1 21:20:57 13° S 21:25:33 57° ESE 21:30:41 10° NNE
Cosmos 1486 Rocket 4.1 21:24:28 10° NNW 21:29:41 67° ENE 21:32:48 24° SE
Cosmos 2333 Rocket 3.2 21:24:14 10° SW 21:29:48 51° WNW 21:35:23 10° NNE
CARTOSAT-1 3.6 21:30:07 21° S 21:32:58 75° WSW 21:37:18 10° NNW
Cosmos 1867 3.6 21:28:11 10° NW 21:33:42 89° WSW 21:37:01 25° SSE
Cosmos 2016 Rocket 4.3 21:29:51 10° NNW 21:35:54 64° W 21:41:14 14° S
SL-4 R/B 2.5 21:32:34 10° WSW 21:36:49 63° NNW 21:40:44 10° NE
SPOT 5 2.9 21:34:14 23° SSE 21:37:23 83° ENE 21:42:11 10° NNW
Cosmos 1455 3.6 21:35:22 10° NNE 21:38:27 23° ENE 21:39:27 21° E
Cosmos 2237 Rocket 2.3 21:37:19 18° S 21:41:24 54° ESE 21:46:52 10° NNE
SL-16 R/B 3.6 21:41:05 18° ESE 21:41:55 19° E 21:45:44 10° ENE
Cosmos 405 4.3 21:40:14 10° NNW 21:43:24 34° W 21:45:27 18° SSW
ERS-1 Rocket 3.0 21:43:46 24° S 21:46:49 81° WSW 21:51:54 10° NNW
Meteor 2-5 Rocket 4.1 21:43:22 10° SSW 21:48:51 64° WNW 21:54:28 10° N
Lacrosse 5 rocket 4.4 21:47:38 10° NW 21:49:21 13° NNW 21:51:03 10° N
Cosmos 1300 3.7 21:47:27 10° NNW 21:51:04 42° W 21:53:13 21° SSW
Geosat 4.0 21:51:56 30° SE 21:54:30 81° ENE 21:59:34 10° NNW
USA 215 4.2 21:51:01 10° ENE 21:56:11 24° SE 21:56:37 24° SE
ATLAS CENTAUR R/B 3.7 21:55:36 10° WNW 21:58:37 18° WSW 22:01:05 12° SSW
Spot 2 Rocket 4.5 21:56:44 17° SSW 22:00:14 41° W 22:05:03 10° NNW
Meteor 1-24 Rocket 4.3 22:03:28 12° SSW 22:08:26 53° WNW 22:13:52 10° N
Meteor 2-10 Rocket 3.6 22:04:17 10° NNW 22:09:17 68° W 22:11:41 30° S
NOSS 0 Rocket 4.1 22:03:08 10° SSW 22:09:19 73° WNW 22:15:35 10° NNE
X-37B 0.5 22:06:14 10° WSW 22:09:26 89° N 22:10:08 51° ENE
Cosmos 1726 Rocket 3.5 22:10:15 10° N 22:14:44 82° E 22:16:06 44° SSE
Cosmos 2278 Rocket 2.3 22:11:50 10° NNW 22:17:29 69° WSW 22:19:57 34° S
Okean 1-7 Rocket 4.0 22:20:45 41° ESE 22:21:31 46° E 22:25:45 10° NNE
SJ 16-02 3.1 22:18:56 10° N 22:22:21 22° ENE 22:23:51 18° E
Cosmos 2058 Rocket 3.2 22:18:57 10° N 22:23:20 61° E 22:24:20 47° SE
Cosmos 1943 Rocket 3.4 22:24:00 10° N 22:28:52 31° NE 22:31:41 20° ESE
Cosmos 1503 Rocket 4.2 22:25:01 10° NNW 22:30:21 64° WSW 22:32:19 38° S
Cosmos 1606 Rocket 4.2 22:27:15 10° NNW 22:31:34 50° W 22:33:03 35° SW
Cosmos 1892 Rocket 3.8 22:35:24 39° SSW 22:36:56 66° W 22:41:23 10° N
NOSS 2-3 (C) 4.3 22:42:32 36° E 22:42:32 36° E 22:46:06 10° NE
Cosmos 2034 Rocket 4.1 22:36:02 10° N 22:42:09 61° E 22:44:25 38° SE
Cosmos 1441 Rocket 3.0 22:45:54 73° SW 22:46:13 83° W 22:50:01 10° N
Terra 3.4 22:51:02 20° SW 22:52:55 25° W 22:56:52 10° NW
Cosmos 1174 4.4 22:52:33 34° SSW 22:55:08 88° ESE 22:59:55 10° NNE
Meteor 1-21 Rocket 4.3 22:55:29 36° SSW 22:57:50 73° W 23:03:36 10° N
ALOS 2 3.2 23:00:30 41° E 23:01:12 44° ENE 23:05:24 10° N
Cosmos 1626 Rocket 3.4 23:01:37 68° SSE 23:02:06 78° E 23:06:33 10° N
GEOS 3 Rocket 4.3 23:04:53 26° ESE 23:07:36 50° NE 23:12:44 10° NNW
Cosmos-2242 4.2 23:06:12 10° NNE 23:10:08 31° ENE 23:10:41 30° E
Cosmos 1777 Rocket 4.1 23:06:20 10° NNW 23:11:35 66° WSW 23:12:44 51° SSW
Cosmos 1602 Rocket 3.5 23:11:17 66° SE 23:11:37 70° E 23:16:05 10° NNE
Cosmos 1703 4.1 23:12:56 38° WSW 23:13:32 41° WNW 23:17:19 10° N
Cosmos 1455 3.9 23:10:56 10° NW 23:13:56 23° W 23:14:20 22° W
Tsikada Rocket 3.9 23:12:02 46° S 23:13:58 77° E 23:20:08 10° N
USA 229 DEB 3.5 23:14:17 44° S 23:16:12 64° ESE 23:22:52 10° NE
USA 229 3.5 23:14:25 45° S 23:16:18 63° ESE 23:22:58 10° NE
SL-4 R/B 4.2 23:13:32 10° WNW 23:16:54 25° N 23:20:04 10° NE
Aureole 3 4.3 23:13:26 10° N 23:17:39 49° E 23:18:31 44° ESE
Cosmos 1758 Rocket 3.9 23:19:59 50° E 23:20:03 50° E 23:24:19 10° NNE
COBE Rocket 3.8 23:19:18 60° S 23:20:13 85° W 23:25:08 10° NNW
NOSS 3-1 (C) 3.3 23:20:16 33° SW 23:22:45 76° NW 23:28:57 10° NE
ATLAS CENTAUR R/B 3.7 23:19:45 13° WSW 23:24:11 65° NNW 23:36:50 10° NE
SL-16 R/B 2.5 23:22:55 33° SW 23:25:27 64° WNW 23:31:06 10° NNE
Cosmos 2237 Rocket 4.1 23:21:12 10° WSW 23:25:47 25° NW 23:30:24 10° N
NOSS 2-3 (E) 3.8 23:33:37 53° WSW 23:34:24 66° NW 23:39:06 10° NNE
USA 305 4.5 23:36:26 24° E 23:36:26 24° E 23:38:27 10° ENE
Cosmos 2369 Rocket 2.7 23:29:21 10° NNW 23:34:58 53° ENE 23:37:05 35° ESE
NOSS 3-1 (A) 3.1 23:34:45 54° SSW 23:36:01 79° ESE 23:42:10 10° NE
Meteor 1-4 Rocket 3.8 23:34:01 10° NNW 23:36:35 32° WNW 23:36:35 32° WNW
USA 215 3.2 23:33:09 10° NE 23:39:43 89° SE 23:43:55 24° SW
Cosmos 1898 Rocket 4.0 23:43:20 10° N 23:48:27 51° ENE 23:49:55 39° ESE
Cosmos 2279 Rocket 4.2 23:43:56 10° N 23:50:05 59° ENE 23:52:06 41° SE
Cosmos 1812 Rocket 3.8 23:46:17 10° NNW 23:50:33 54° W 23:50:41 54° WSW
Lacrosse 4 Rocket 3.9 23:51:24 10° N 23:54:07 17° NE 23:56:47 10° E
